DRAGON CRS-15 DEB

Last updated on July 12, 2018, 12:15 a.m. UTC

1 43523U 18055B   18192.16755092  .34015475  12490-4  10517-2 0  9997
2 43523  51.6335 255.1452 0006841 109.8760 250.6309 16.44590104  1871

Satellite is not in orbit.